| time (UTC) | temp F | wind direction | speed MPH | gust MPH | rain 1hr in | rain 24hr in | rain mn in | humidity % | barometer mb |
| 20260508141524 | 61 | 227 | 3.0 | 8.0 | 0.00 | 0.00 | 0.00 | 56 | 1016.3 |
| 20260508141029 | 60 | 270 | 2.0 | 7.0 | 0.00 | 0.00 | 0.00 | 58 | 1016.2 |
| 20260508140050 | 59 | 232 | 2.0 | 5.0 | 0.00 | 0.00 | 0.00 | 63 | 1016.3 |
| 20260508135546 | 59 | 135 | 0.0 | 1.0 | 0.00 | 0.00 | 0.00 | 71 | 1016.3 |
| 20260508135033 | 58 | 135 | 0.0 | 1.0 | 0.00 | 0.00 | 0.00 | 72 | 1016.3 |
| 20260508134522 | 57 | 135 | 0.0 | 0.0 | 0.00 | 0.00 | 0.00 | 69 | 1016.4 |
| 20260508134019 | 56 | 135 | 0.0 | 0.0 | 0.00 | 0.00 | 0.00 | 72 | 1016.5 |
| 20260508133526 | 55 | 135 | 0.0 | 0.0 | 0.00 | 0.00 | 0.00 | 70 | 1016.5 |
| 20260508133024 | 54 | 135 | 0.0 | 0.0 | 0.00 | 0.00 | 0.00 | 73 | 1016.5 |
| 20260508132620 | 54 | 135 | 0.0 | 0.0 | 0.00 | 0.00 | 0.00 | 75 | 1016.5 |
| 20260508132052 | 53 | 135 | 0.0 | 0.0 | 0.00 | 0.00 | 0.00 | 78 | 1016.5 |
| 20260508131519 | 52 | 135 | 0.0 | 1.0 | 0.00 | 0.00 | 0.00 | 76 | 1016.6 |
| 20260508131056 | 52 | 135 | 0.0 | 2.0 | 0.00 | 0.00 | 0.00 | 80 | 1016.6 |
| 20260508130532 | 50 | 135 | 0.0 | 0.0 | 0.00 | 0.00 | 0.00 | 82 | 1016.6 |
| 20260508130029 | 49 | 135 | 0.0 | 0.0 | 0.00 | 0.00 | 0.00 | 85 | 1016.6 |
| 20260508125526 | 48 | 135 | 0.0 | 0.0 | 0.00 | 0.00 | 0.00 | 85 | 1016.6 |
| 20260508125035 | 47 | 65 | 0.0 | 0.0 | 0.00 | 0.00 | 0.00 | 88 | 1016.7 |
| 20260508124532 | 47 | 327 | 0.0 | 0.0 | 0.00 | 0.00 | 0.00 | 91 | 1016.8 |
| 20260508124020 | 46 | 327 | 0.0 | 0.0 | 0.00 | 0.00 | 0.00 | 94 | 1016.8 |
| 20260508123533 | 45 | 322 | 0.0 | 0.0 | 0.00 | 0.00 | 0.00 | 96 | 1016.8 |
| 20260508123021 | 44 | 324 | 0.0 | 0.0 | 0.00 | 0.00 | 0.00 | 96 | 1016.8 |
| 20260508122618 | 43 | 324 | 0.0 | 0.0 | 0.00 | 0.00 | 0.00 | 96 | 1016.7 |
| 20260508122050 | 43 | 324 | 0.0 | 0.0 | 0.00 | 0.00 | 0.00 | 97 | 1016.8 |
| 20260508121546 | 42 | 324 | 0.0 | 0.0 | 0.00 | 0.00 | 0.00 | 97 | 1016.7 |
| 20260508121041 | 42 | 324 | 0.0 | 0.0 | 0.00 | 0.00 | 0.00 | 96 | 1016.7 |
| 20260508120618 | 41 | 324 | 0.0 | 0.0 | 0.00 | 0.00 | 0.00 | 97 | 1016.7 |
| 20260508120030 | 41 | 324 | 0.0 | 0.0 | 0.00 | 0.00 | 0.00 | 97 | 1016.6 |
| 20260508115519 | 40 | 324 | 327.0 | 327.0 | 0.00 | 0.00 | 0.00 | 96 | 1016.5 |
| 20260508115019 | 39 | 324 | 0.0 | 0.0 | 0.00 | 0.00 | 0.00 | 96 | 1016.6 |
| 20260508114558 | 39 | 324 | 0.0 | 0.0 | 0.00 | 0.00 | 0.00 | 96 | 1016.7 |
| 20260508114021 | 38 | 324 | 0.0 | 0.0 | 0.00 | 0.00 | 0.00 | 96 | 1016.7 |
| 20260508113526 | 38 | 324 | 0.0 | 0.0 | 0.00 | 0.00 | 0.00 | 96 | 1016.7 |
| 20260508113103 | 38 | 324 | 0.0 | 0.0 | 0.00 | 0.00 | 0.00 | 96 | 1016.6 |
| 20260508112530 | 37 | 324 | 0.0 | 0.0 | 0.00 | 0.00 | 0.00 | 96 | 1016.6 |
| 20260508112028 | 37 | 324 | 0.0 | 0.0 | 0.00 | 0.00 | 0.00 | 96 | 1016.6 |
| 20260508111532 | 37 | 324 | 0.0 | 0.0 | 0.00 | 0.00 | 0.00 | 96 | 1016.5 |
| 20260508111049 | 36 | 324 | 0.0 | 0.0 | 0.00 | 0.00 | 0.00 | 96 | 1016.4 |
| 20260508110545 | 36 | 324 | 0.0 | 0.0 | 0.00 | 0.00 | 0.00 | 96 | 1016.5 |
| 20260508110032 | 36 | 324 | 0.0 | 0.0 | 0.00 | 0.00 | 0.00 | 96 | 1016.4 |
| 20260508105530 | 36 | 324 | 0.0 | 0.0 | 0.00 | 0.00 | 0.00 | 96 | 1016.3 |
| 20260508105026 | 36 | 324 | 0.0 | 0.0 | 0.00 | 0.00 | 0.00 | 95 | 1016.2 |
| 20260508104544 | 36 | 324 | 0.0 | 0.0 | 0.00 | 0.00 | 0.00 | 95 | 1016.2 |
| 20260508104039 | 36 | 324 | 0.0 | 0.0 | 0.00 | 0.00 | 0.00 | 95 | 1016.2 |
| 20260508103526 | 36 | 325 | 0.0 | 0.0 | 0.00 | 0.00 | 0.00 | 95 | 1016.2 |
| 20260508103023 | 37 | 325 | 0.0 | 0.0 | 0.00 | 0.00 | 0.00 | 95 | 1016.2 |
| 20260508102529 | 37 | 325 | 327.0 | 327.0 | 0.00 | 0.00 | 0.00 | 95 | 1016.0 |
| 20260508102044 | 37 | 325 | 0.0 | 0.0 | 0.00 | 0.00 | 0.00 | 95 | 1016.1 |
| 20260508101532 | 37 | 325 | 0.0 | 0.0 | 0.00 | 0.00 | 0.00 | 95 | 1016.1 |
| 20260508101029 | 37 | 325 | 0.0 | 0.0 | 0.00 | 0.00 | 0.00 | 95 | 1016.0 |
| 20260508100517 | 37 | 325 | 0.0 | 0.0 | 0.00 | 0.00 | 0.00 | 96 | 1016.0 |
| 20260508100047 | 37 | 325 | 0.0 | 0.0 | 0.00 | 0.00 | 0.00 | 96 | 1015.9 |
| 20260508095545 | 37 | 325 | 0.0 | 0.0 | 0.00 | 0.00 | 0.00 | 96 | 1015.9 |
| 20260508095028 | 37 | 325 | 0.0 | 0.0 | 0.00 | 0.00 | 0.00 | 96 | 1016.0 |
| 20260508094526 | 37 | 325 | 0.0 | 0.0 | 0.00 | 0.00 | 0.00 | 96 | 1016.0 |
| 20260508094033 | 37 | 325 | 0.0 | 0.0 | 0.00 | 0.00 | 0.00 | 96 | 1015.9 |
| 20260508093539 | 37 | 325 | 0.0 | 0.0 | 0.00 | 0.00 | 0.00 | 96 | 1015.9 |
| 20260508093027 | 37 | 325 | 0.0 | 0.0 | 0.00 | 0.00 | 0.00 | 95 | 1015.9 |
| 20260508092544 | 37 | 325 | 0.0 | 0.0 | 0.00 | 0.00 | 0.00 | 96 | 1015.9 |
| 20260508092101 | 37 | 325 | 0.0 | 0.0 | 0.00 | 0.00 | 0.00 | 95 | 1015.8 |
| 20260508091553 | 37 | 325 | 0.0 | 0.0 | 0.00 | 0.00 | 0.00 | 95 | 1015.9 |
| 20260508091020 | 37 | 325 | 0.0 | 0.0 | 0.00 | 0.00 | 0.00 | 95 | 1015.9 |
| 20260508090618 | 38 | 325 | 0.0 | 0.0 | 0.00 | 0.00 | 0.00 | 95 | 1015.8 |
| 20260508085529 | 38 | 325 | 0.0 | 0.0 | 0.00 | 0.00 | 0.00 | 96 | 1015.8 |
| 20260508085026 | 38 | 325 | 0.0 | 0.0 | 0.00 | 0.00 | 0.00 | 95 | 1015.8 |
| 20260508084534 | 38 | 325 | 0.0 | 0.0 | 0.00 | 0.00 | 0.00 | 95 | 1015.8 |
| 20260508084039 | 38 | 325 | 0.0 | 0.0 | 0.00 | 0.00 | 0.00 | 96 | 1015.7 |
| 20260508083527 | 38 | 325 | 0.0 | 0.0 | 0.00 | 0.00 | 0.00 | 96 | 1015.6 |
| 20260508083044 | 38 | 325 | 0.0 | 0.0 | 0.00 | 0.00 | 0.00 | 96 | 1015.6 |
| 20260508082533 | 38 | 325 | 0.0 | 0.0 | 0.00 | 0.00 | 0.00 | 96 | 1015.6 |
| 20260508082022 | 37 | 325 | 0.0 | 0.0 | 0.00 | 0.00 | 0.00 | 96 | 1015.6 |
| 20260508081518 | 37 | 325 | 0.0 | 0.0 | 0.00 | 0.00 | 0.00 | 96 | 1015.6 |
| 20260508081035 | 37 | 325 | 0.0 | 0.0 | 0.00 | 0.00 | 0.00 | 96 | 1015.7 |
| 20260508080532 | 36 | 325 | 0.0 | 0.0 | 0.00 | 0.00 | 0.00 | 95 | 1015.6 |
| 20260508080049 | 36 | 325 | 0.0 | 0.0 | 0.00 | 0.00 | 0.00 | 95 | 1015.6 |
| 20260508075516 | 36 | 325 | 0.0 | 0.0 | 0.00 | 0.00 | 0.00 | 95 | 1015.6 |
| 20260508075030 | 36 | 325 | 0.0 | 0.0 | 0.00 | 0.00 | 0.00 | 95 | 1015.5 |
| 20260508074519 | 36 | 325 | 0.0 | 0.0 | 0.00 | 0.00 | 0.00 | 96 | 1015.5 |
| 20260508074036 | 36 | 325 | 0.0 | 0.0 | 0.00 | 0.00 | 0.00 | 95 | 1015.6 |
| 20260508073553 | 35 | 325 | 0.0 | 0.0 | 0.00 | 0.00 | 0.00 | 95 | 1015.5 |
| 20260508073109 | 36 | 325 | 0.0 | 0.0 | 0.00 | 0.00 | 0.00 | 95 | 1015.4 |
| 20260508072534 | 36 | 325 | 0.0 | 0.0 | 0.00 | 0.00 | 0.00 | 95 | 1015.5 |
| 20260508072050 | 36 | 325 | 0.0 | 0.0 | 0.00 | 0.00 | 0.00 | 95 | 1015.5 |
| 20260508071517 | 36 | 325 | 0.0 | 0.0 | 0.00 | 0.00 | 0.00 | 95 | 1015.4 |
| 20260508071054 | 35 | 325 | 0.0 | 0.0 | 0.00 | 0.00 | 0.00 | 95 | 1015.4 |
| 20260508070530 | 35 | 325 | 0.0 | 0.0 | 0.00 | 0.00 | 0.00 | 94 | 1015.4 |
| 20260508070018 | 35 | 325 | 0.0 | 0.0 | 0.00 | 0.00 | 0.00 | 94 | 1015.4 |
| 20260508065555 | 36 | 325 | 0.0 | 0.0 | 0.00 | 0.00 | 0.00 | 94 | 1015.4 |
| 20260508064549 | 36 | 325 | 0.0 | 0.0 | 0.00 | 0.00 | 0.00 | 94 | 1015.5 |
| 20260508064017 | 36 | 325 | 0.0 | 0.0 | 0.00 | 0.00 | 0.00 | 94 | 1015.5 |
| 20260508063033 | 36 | 325 | 0.0 | 0.0 | 0.00 | 0.00 | 0.00 | 95 | 1015.7 |
| 20260508062521 | 36 | 325 | 0.0 | 0.0 | 0.00 | 0.00 | 0.00 | 95 | 1015.6 |
| 20260508062038 | 36 | 325 | 0.0 | 0.0 | 0.00 | 0.00 | 0.00 | 94 | 1015.7 |
| 20260508061047 | 36 | 325 | 0.0 | 0.0 | 0.00 | 0.00 | 0.00 | 93 | 1015.7 |
| 20260508060515 | 36 | 325 | 0.0 | 0.0 | 0.00 | 0.00 | 0.00 | 93 | 1015.7 |
| 20260508060033 | 36 | 325 | 0.0 | 0.0 | 0.00 | 0.00 | 0.00 | 93 | 1015.8 |
| 20260508055541 | 37 | 325 | 0.0 | 0.0 | 0.00 | 0.00 | 0.00 | 93 | 1015.8 |
| 20260508055018 | 37 | 325 | 0.0 | 0.0 | 0.00 | 0.00 | 0.00 | 93 | 1015.7 |
| 20260508054535 | 38 | 325 | 0.0 | 0.0 | 0.00 | 0.00 | 0.00 | 94 | 1015.7 |
| 20260508054044 | 38 | 325 | 0.0 | 0.0 | 0.00 | 0.00 | 0.00 | 94 | 1015.6 |
| 20260508053529 | 38 | 325 | 0.0 | 0.0 | 0.00 | 0.00 | 0.00 | 94 | 1015.6 |
| 20260508053037 | 38 | 325 | 0.0 | 0.0 | 0.00 | 0.00 | 0.00 | 94 | 1015.6 |
| 20260508052533 | 38 | 325 | 0.0 | 0.0 | 0.00 | 0.00 | 0.00 | 94 | 1015.6 |
| 20260508052021 | 37 | 325 | 0.0 | 0.0 | 0.00 | 0.00 | 0.00 | 93 | 1015.5 |
| 20260508051519 | 38 | 325 | 0.0 | 0.0 | 0.00 | 0.00 | 0.00 | 93 | 1015.5 |
| 20260508051036 | 38 | 325 | 0.0 | 0.0 | 0.00 | 0.00 | 0.00 | 93 | 1015.4 |
| 20260508050550 | 38 | 325 | 0.0 | 0.0 | 0.00 | 0.00 | 0.00 | 94 | 1015.5 |
| 20260508050026 | 38 | 325 | 0.0 | 0.0 | 0.00 | 0.00 | 0.00 | 93 | 1015.6 |
| 20260508045529 | 38 | 325 | 0.0 | 0.0 | 0.00 | 0.00 | 0.00 | 93 | 1015.5 |
| 20260508045026 | 38 | 325 | 0.0 | 0.0 | 0.00 | 0.00 | 0.00 | 94 | 1015.5 |
| 20260508044603 | 38 | 325 | 0.0 | 0.0 | 0.00 | 0.00 | 0.00 | 94 | 1015.6 |
| 20260508044030 | 38 | 325 | 0.0 | 0.0 | 0.00 | 0.00 | 0.00 | 93 | 1015.6 |
| 20260508043536 | 38 | 325 | 0.0 | 0.0 | 0.00 | 0.00 | 0.00 | 93 | 1015.6 |
| 20260508043044 | 38 | 325 | 0.0 | 0.0 | 0.00 | 0.00 | 0.00 | 92 | 1015.6 |
| 20260508042520 | 38 | 325 | 0.0 | 0.0 | 0.00 | 0.00 | 0.00 | 92 | 1015.6 |
| 20260508042024 | 39 | 325 | 0.0 | 0.0 | 0.00 | 0.00 | 0.00 | 92 | 1015.5 |
| 20260508041521 | 39 | 325 | 0.0 | 0.0 | 0.00 | 0.00 | 0.00 | 93 | 1015.5 |
| 20260508041029 | 39 | 325 | 0.0 | 0.0 | 0.00 | 0.00 | 0.00 | 93 | 1015.5 |
| 20260508040059 | 39 | 325 | 0.0 | 0.0 | 0.00 | 0.00 | 0.00 | 91 | 1015.5 |
| 20260508035544 | 39 | 325 | 0.0 | 0.0 | 0.00 | 0.00 | 0.00 | 92 | 1015.5 |
| 20260508035048 | 39 | 325 | 0.0 | 0.0 | 0.00 | 0.00 | 0.00 | 92 | 1015.5 |
| 20260508034531 | 40 | 325 | 0.0 | 0.0 | 0.00 | 0.00 | 0.00 | 92 | 1015.6 |
| 20260508034020 | 40 | 325 | 0.0 | 0.0 | 0.00 | 0.00 | 0.00 | 91 | 1015.6 |
| 20260508033537 | 40 | 325 | 0.0 | 0.0 | 0.00 | 0.00 | 0.00 | 90 | 1015.5 |
| 20260508033024 | 40 | 325 | 0.0 | 0.0 | 0.00 | 0.00 | 0.00 | 91 | 1015.6 |
| 20260508032541 | 40 | 325 | 0.0 | 0.0 | 0.00 | 0.00 | 0.00 | 91 | 1015.6 |
| 20260508032029 | 40 | 325 | 0.0 | 0.0 | 0.00 | 0.00 | 0.00 | 90 | 1015.6 |
| 20260508031517 | 41 | 325 | 0.0 | 0.0 | 0.00 | 0.00 | 0.00 | 90 | 1015.6 |
| 20260508031034 | 41 | 325 | 0.0 | 0.0 | 0.00 | 0.00 | 0.00 | 89 | 1015.6 |
| 20260508030530 | 41 | 325 | 0.0 | 0.0 | 0.00 | 0.00 | 0.00 | 89 | 1015.5 |
| 20260508030019 | 41 | 325 | 0.0 | 0.0 | 0.00 | 0.00 | 0.00 | 90 | 1015.4 |
| 20260508025536 | 41 | 325 | 0.0 | 0.0 | 0.00 | 0.00 | 0.00 | 89 | 1015.4 |
| 20260508025025 | 42 | 325 | 0.0 | 0.0 | 0.00 | 0.00 | 0.00 | 88 | 1015.4 |
| 20260508024542 | 42 | 325 | 0.0 | 0.0 | 0.00 | 0.00 | 0.00 | 88 | 1015.4 |
| 20260508024030 | 42 | 325 | 0.0 | 0.0 | 0.00 | 0.00 | 0.00 | 88 | 1015.3 |
| 20260508023529 | 42 | 325 | 0.0 | 0.0 | 0.00 | 0.00 | 0.00 | 87 | 1015.1 |
| 20260508023016 | 42 | 325 | 0.0 | 0.0 | 0.00 | 0.00 | 0.00 | 87 | 1015.0 |
| 20260508022534 | 42 | 325 | 0.0 | 0.0 | 0.00 | 0.00 | 0.00 | 86 | 1014.9 |
| 20260508022022 | 43 | 325 | 0.0 | 0.0 | 0.00 | 0.00 | 0.00 | 86 | 1014.9 |
| 20260508021538 | 43 | 325 | 0.0 | 0.0 | 0.00 | 0.00 | 0.00 | 85 | 1014.8 |
| 20260508021026 | 43 | 325 | 0.0 | 0.0 | 0.00 | 0.00 | 0.00 | 84 | 1014.8 |
| 20260508020543 | 44 | 325 | 0.0 | 0.0 | 0.00 | 0.00 | 0.00 | 84 | 1014.7 |
| 20260508020031 | 44 | 325 | 0.0 | 0.0 | 0.00 | 0.00 | 0.00 | 83 | 1014.6 |
| 20260508015544 | 45 | 325 | 0.0 | 0.0 | 0.00 | 0.00 | 0.00 | 82 | 1014.6 |
| 20260508015040 | 45 | 325 | 0.0 | 0.0 | 0.00 | 0.00 | 0.00 | 82 | 1014.5 |
| 20260508014529 | 45 | 325 | 0.0 | 0.0 | 0.00 | 0.00 | 0.00 | 81 | 1014.5 |
| 20260508014016 | 46 | 325 | 0.0 | 0.0 | 0.00 | 0.00 | 0.00 | 81 | 1014.4 |
| 20260508013033 | 46 | 325 | 327.0 | 327.0 | 0.00 | 0.00 | 0.00 | 79 | 1014.0 |
| 20260508012528 | 47 | 325 | 0.0 | 0.0 | 0.00 | 0.00 | 0.00 | 78 | 1014.1 |
| 20260508011553 | 48 | 325 | 0.0 | 0.0 | 0.00 | 0.00 | 0.00 | 77 | 1013.9 |
| 20260508011019 | 48 | 325 | 0.0 | 0.0 | 0.00 | 0.00 | 0.00 | 77 | 1013.9 |
| 20260508010517 | 48 | 325 | 0.0 | 0.0 | 0.00 | 0.00 | 0.00 | 76 | 1013.8 |
| 20260508010032 | 49 | 325 | 0.0 | 0.0 | 0.00 | 0.00 | 0.00 | 73 | 1013.8 |
| 20260508005538 | 50 | 325 | 0.0 | 0.0 | 0.00 | 0.00 | 0.00 | 71 | 1013.7 |
| 20260508005034 | 51 | 325 | 0.0 | 0.0 | 0.00 | 0.00 | 0.00 | 69 | 1013.7 |
| 20260508004522 | 51 | 325 | 0.0 | 0.0 | 0.00 | 0.00 | 0.00 | 67 | 1013.6 |
| 20260508004019 | 52 | 325 | 0.0 | 0.0 | 0.00 | 0.00 | 0.00 | 68 | 1013.6 |
| 20260508003527 | 52 | 280 | 0.0 | 0.0 | 0.00 | 0.00 | 0.00 | 68 | 1013.5 |
| 20260508003024 | 53 | 284 | 0.0 | 0.0 | 0.00 | 0.00 | 0.00 | 67 | 1013.4 |
| 20260508002541 | 53 | 315 | 0.0 | 0.0 | 0.00 | 0.00 | 0.00 | 66 | 1013.4 |
| 20260508002049 | 53 | 138 | 0.0 | 0.0 | 0.00 | 0.00 | 0.00 | 66 | 1013.3 |
| 20260508001525 | 54 | 138 | 0.0 | 0.0 | 0.00 | 0.00 | 0.00 | 64 | 1013.3 |
| 20260508001102 | 54 | 138 | 0.0 | 0.0 | 0.00 | 0.00 | 0.00 | 66 | 1013.2 |
| 20260508000529 | 55 | 138 | 0.0 | 0.0 | 0.00 | 0.00 | 0.00 | 63 | 1013.0 |
| 20260508000043 | 55 | 138 | 0.0 | 0.0 | 0.00 | 0.00 | 0.00 | 62 | 1013.0 |
| 20260507235531 | 55 | 138 | 0.0 | 0.0 | 0.00 | 0.00 | 0.00 | 60 | 1013.0 |
| 20260507235027 | 56 | 138 | 0.0 | 0.0 | 0.00 | 0.00 | 0.00 | 64 | 1012.9 |
| 20260507234535 | 57 | 138 | 0.0 | 0.0 | 0.00 | 0.00 | 0.00 | 62 | 1012.8 |
| 20260507234021 | 57 | 138 | 0.0 | 0.0 | 0.00 | 0.00 | 0.00 | 60 | 1012.7 |
| 20260507233529 | 58 | 138 | 0.0 | 0.0 | 0.00 | 0.00 | 0.00 | 59 | 1012.7 |
| 20260507233043 | 59 | 138 | 0.0 | 0.0 | 0.00 | 0.00 | 0.00 | 57 | 1012.7 |
| 20260507232539 | 60 | 138 | 0.0 | 0.0 | 0.00 | 0.00 | 0.00 | 53 | 1012.6 |
| 20260507232027 | 60 | 138 | 0.0 | 0.0 | 0.00 | 0.00 | 0.00 | 51 | 1012.6 |
| 20260507231022 | 62 | 175 | 0.0 | 8.0 | 0.00 | 0.00 | 0.00 | 38 | 1012.5 |
| 20260507230539 | 62 | 105 | 0.0 | 8.0 | 0.00 | 0.00 | 0.00 | 44 | 1012.5 |
| 20260507230027 | 63 | 215 | 0.0 | 5.0 | 0.00 | 0.00 | 0.00 | 39 | 1012.5 |
| 20260507225516 | 63 | 217 | 0.0 | 5.0 | 0.00 | 0.00 | 0.00 | 36 | 1012.6 |
| 20260507225033 | 63 | 252 | 1.0 | 6.0 | 0.00 | 0.00 | 0.00 | 37 | 1012.6 |
| 20260507224521 | 63 | 166 | 2.0 | 15.0 | 0.00 | 0.00 | 0.00 | 37 | 1012.6 |
| 20260507224018 | 64 | 207 | 3.0 | 15.0 | 0.00 | 0.00 | 0.00 | 41 | 1012.4 |
| 20260507223534 | 64 | 195 | 0.0 | 4.0 | 0.00 | 0.00 | 0.00 | 41 | 1012.5 |
| 20260507223031 | 64 | 192 | 1.0 | 6.0 | 0.00 | 0.00 | 0.00 | 41 | 1012.5 |
| 20260507222518 | 64 | 217 | 1.0 | 7.0 | 0.00 | 0.00 | 0.00 | 37 | 1012.4 |
| 20260507222015 | 64 | 167 | 2.0 | 8.0 | 0.00 | 0.00 | 0.00 | 38 | 1012.3 |
| 20260507221524 | 64 | 259 | 3.0 | 9.0 | 0.00 | 0.00 | 0.00 | 38 | 1012.3 |
| 20260507221020 | 64 | 254 | 5.0 | 14.0 | 0.00 | 0.00 | 0.00 | 39 | 1012.2 |
| 20260507220528 | 65 | 290 | 2.0 | 14.0 | 0.00 | 0.00 | 0.00 | 39 | 1012.2 |
| 20260507220025 | 65 | 298 | 3.0 | 9.0 | 0.00 | 0.00 | 0.00 | 38 | 1012.2 |
| 20260507215533 | 64 | 189 | 0.0 | 9.0 | 0.00 | 0.00 | 0.00 | 39 | 1012.1 |
| 20260507215050 | 64 | 293 | 1.0 | 9.0 | 0.00 | 0.00 | 0.00 | 42 | 1012.0 |
| 20260507214527 | 64 | 115 | 1.0 | 5.0 | 0.00 | 0.00 | 0.00 | 40 | 1012.0 |
| 20260507214024 | 64 | 178 | 1.0 | 8.0 | 0.00 | 0.00 | 0.00 | 41 | 1012.0 |
| 20260507213541 | 65 | 252 | 2.0 | 8.0 | 0.00 | 0.00 | 0.00 | 40 | 1012.0 |
| 20260507213029 | 66 | 138 | 1.0 | 11.0 | 0.00 | 0.00 | 0.00 | 42 | 1011.9 |
| 20260507212517 | 65 | 28 | 3.0 | 11.0 | 0.00 | 0.00 | 0.00 | 39 | 1011.9 |
| 20260507212034 | 65 | 275 | 3.0 | 10.0 | 0.00 | 0.00 | 0.00 | 43 | 1011.7 |
| 20260507211521 | 65 | 325 | 4.0 | 10.0 | 0.00 | 0.00 | 0.00 | 41 | 1011.7 |
| 20260507211026 | 65 | 281 | 1.0 | 11.0 | 0.00 | 0.00 | 0.00 | 41 | 1011.8 |
| 20260507210514 | 66 | 304 | 5.0 | 13.0 | 0.00 | 0.00 | 0.00 | 39 | 1011.8 |
| 20260507210031 | 66 | 305 | 4.0 | 9.0 | 0.00 | 0.00 | 0.00 | 39 | 1011.7 |
| 20260507205519 | 66 | 48 | 1.0 | 7.0 | 0.00 | 0.00 | 0.00 | 40 | 1011.7 |
| 20260507205036 | 65 | 153 | 1.0 | 10.0 | 0.00 | 0.00 | 0.00 | 44 | 1011.6 |
| 20260507204528 | 65 | 156 | 1.0 | 9.0 | 0.00 | 0.00 | 0.00 | 41 | 1011.5 |
| 20260507204036 | 64 | 220 | 2.0 | 9.0 | 0.00 | 0.00 | 0.00 | 41 | 1011.7 |
| 20260507203041 | 66 | 350 | 1.0 | 7.0 | 0.00 | 0.00 | 0.00 | 43 | 1011.6 |
| 20260507202528 | 66 | 241 | 1.0 | 0.0 | 0.00 | 0.00 | 0.00 | 41 | 1011.3 |
| 20260507202022 | 65 | 275 | 2.0 | 6.0 | 0.00 | 0.00 | 0.00 | 40 | 1011.4 |
| 20260507201530 | 65 | 119 | 1.0 | 8.0 | 0.00 | 0.00 | 0.00 | 40 | 1011.5 |
| 20260507201026 | 65 | 158 | 0.0 | 8.0 | 0.00 | 0.00 | 0.00 | 47 | 1011.6 |
| 20260507200514 | 65 | 233 | 2.0 | 11.0 | 0.00 | 0.00 | 0.00 | 41 | 1011.7 |
| 20260507200031 | 65 | 355 | 2.0 | 11.0 | 0.00 | 0.00 | 0.00 | 42 | 1011.8 |
| 20260507195519 | 64 | 271 | 2.0 | 9.0 | 0.00 | 0.00 | 0.00 | 43 | 1011.8 |
| 20260507195016 | 64 | 330 | 2.0 | 10.0 | 0.00 | 0.00 | 0.00 | 48 | 1011.9 |
| 20260507194524 | 65 | 322 | 4.0 | 11.0 | 0.00 | 0.00 | 0.00 | 41 | 1011.8 |
| 20260507194021 | 65 | 293 | 5.0 | 11.0 | 0.00 | 0.00 | 0.00 | 48 | 1011.8 |
| 20260507193529 | 64 | 206 | 0.0 | 13.0 | 0.00 | 0.00 | 0.00 | 43 | 1011.8 |
| 20260507193026 | 64 | 294 | 4.0 | 13.0 | 0.00 | 0.00 | 0.00 | 45 | 1011.9 |
| 20260507192523 | 65 | 292 | 4.0 | 10.0 | 0.00 | 0.00 | 0.00 | 45 | 1011.8 |
| 20260507192040 | 65 | 267 | 3.0 | 12.0 | 0.00 | 0.00 | 0.00 | 48 | 1011.8 |
| 20260507191528 | 65 | 325 | 2.0 | 12.0 | 0.00 | 0.00 | 0.00 | 46 | 1011.9 |
| 20260507191045 | 65 | 332 | 4.0 | 11.0 | 0.00 | 0.00 | 0.00 | 44 | 1012.1 |
| 20260507190541 | 65 | 268 | 2.0 | 15.0 | 0.00 | 0.00 | 0.00 | 49 | 1012.1 |
| 20260507190057 | 64 | 303 | 0.0 | 15.0 | 0.00 | 0.00 | 0.00 | 44 | 1012.1 |
| 20260507185541 | 65 | 249 | 6.0 | 11.0 | 0.00 | 0.01 | 0.00 | 44 | 1012.2 |
| 20260507185016 | 65 | 269 | 4.0 | 11.0 | 0.00 | 0.01 | 0.00 | 45 | 1012.2 |
| 20260507184524 | 64 | 205 | 1.0 | 11.0 | 0.00 | 0.01 | 0.00 | 57 | 1012.2 |
| 20260507184030 | 63 | 106 | 2.0 | 7.0 | 0.00 | 0.01 | 0.00 | 45 | 1012.4 |
| 20260507183518 | 63 | 140 | 0.0 | 7.0 | 0.00 | 0.01 | 0.00 | 47 | 1012.4 |
| 20260507183017 | 64 | 142 | 2.0 | 10.0 | 0.00 | 0.01 | 0.00 | 43 | 1012.4 |
| 20260507182521 | 64 | 325 | 2.0 | 12.0 | 0.00 | 0.01 | 0.00 | 52 | 1012.6 |
| 20260507182027 | 64 | 234 | 3.0 | 12.0 | 0.00 | 0.01 | 0.00 | 48 | 1012.6 |
| 20260507181524 | 64 | 270 | 2.0 | 13.0 | 0.00 | 0.01 | 0.00 | 50 | 1012.5 |
| 20260507181041 | 65 | 19 | 4.0 | 13.0 | 0.00 | 0.01 | 0.00 | 48 | 1012.5 |
| 20260507180559 | 65 | 232 | 2.0 | 8.0 | 0.00 | 0.01 | 0.00 | 50 | 1012.5 |
| 20260507180025 | 64 | 163 | 1.0 | 9.0 | 0.00 | 0.01 | 0.00 | 49 | 1012.5 |
| 20260507175542 | 64 | 193 | 0.0 | 9.0 | 0.00 | 0.01 | 0.00 | 52 | 1012.6 |
| 20260507175050 | 64 | 225 | 3.0 | 9.0 | 0.00 | 0.01 | 0.00 | 51 | 1012.6 |
| 20260507174527 | 63 | 271 | 1.0 | 8.0 | 0.00 | 0.01 | 0.00 | 49 | 1012.7 |
| 20260507174016 | 62 | 219 | 2.0 | 8.0 | 0.00 | 0.01 | 0.00 | 51 | 1012.8 |
| 20260507173534 | 63 | 232 | 1.0 | 9.0 | 0.00 | 0.01 | 0.00 | 52 | 1012.9 |
| 20260507173022 | 63 | 29 | 3.0 | 9.0 | 0.00 | 0.01 | 0.00 | 49 | 1012.9 |
| 20260507172519 | 63 | 325 | 1.0 | 9.0 | 0.00 | 0.01 | 0.00 | 51 | 1012.7 |
| 20260507172027 | 63 | 254 | 1.0 | 8.0 | 0.00 | 0.01 | 0.00 | 51 | 1012.9 |
| 20260507171543 | 63 | 190 | 3.0 | 11.0 | 0.00 | 0.01 | 0.00 | 48 | 1013.0 |
| 20260507171039 | 62 | 304 | 3.0 | 11.0 | 0.00 | 0.01 | 0.00 | 53 | 1013.1 |
| 20260507170526 | 62 | 269 | 3.0 | 11.0 | 0.00 | 0.01 | 0.00 | 54 | 1013.1 |
| 20260507170031 | 62 | 348 | 4.0 | 11.0 | 0.00 | 0.01 | 0.00 | 54 | 1013.1 |
| 20260507165519 | 61 | 243 | 3.0 | 7.0 | 0.00 | 0.01 | 0.00 | 55 | 1013.2 |
| 20260507165016 | 61 | 256 | 2.0 | 7.0 | 0.00 | 0.01 | 0.00 | 51 | 1013.3 |
| 20260507164524 | 62 | 318 | 1.0 | 8.0 | 0.00 | 0.01 | 0.00 | 52 | 1013.2 |
| 20260507164016 | 62 | 325 | 3.0 | 8.0 | 0.00 | 0.01 | 0.00 | 56 | 1013.3 |
| 20260507163533 | 62 | 266 | 2.0 | 10.0 | 0.00 | 0.01 | 0.00 | 54 | 1013.3 |
| 20260507163041 | 62 | 263 | 1.0 | 7.0 | 0.00 | 0.01 | 0.00 | 55 | 1013.3 |
| 20260507162517 | 62 | 294 | 2.0 | 7.0 | 0.00 | 0.01 | 0.00 | 57 | 1013.3 |
| 20260507162025 | 61 | 198 | 1.0 | 7.0 | 0.00 | 0.01 | 0.00 | 56 | 1013.4 |
| 20260507161542 | 60 | 284 | 2.0 | 7.0 | 0.00 | 0.01 | 0.00 | 53 | 1013.5 |
| 20260507161038 | 60 | 188 | 0.0 | 3.0 | 0.00 | 0.01 | 0.00 | 57 | 1013.5 |
| 20260507160616 | 60 | 122 | 0.0 | 5.0 | 0.00 | 0.01 | 0.00 | 61 | 1013.6 |
| 20260507160100 | 60 | 120 | 0.0 | 5.0 | 0.00 | 0.01 | 0.00 | 55 | 1013.5 |
| 20260507155526 | 61 | 124 | 0.0 | 10.0 | 0.00 | 0.01 | 0.00 | 54 | 1013.5 |
| 20260507155043 | 61 | 230 | 0.0 | 10.0 | 0.00 | 0.01 | 0.00 | 53 | 1013.6 |
| 20260507154531 | 61 | 265 | 1.0 | 7.0 | 0.00 | 0.01 | 0.00 | 58 | 1013.6 |
| 20260507154048 | 60 | 223 | 1.0 | 6.0 | 0.00 | 0.01 | 0.00 | 55 | 1013.6 |
| 20260507153536 | 60 | 306 | 0.0 | 3.0 | 0.00 | 0.01 | 0.00 | 59 | 1013.6 |
| 20260507153041 | 60 | 232 | 0.0 | 9.0 | 0.00 | 0.01 | 0.00 | 55 | 1013.7 |
| 20260507152529 | 60 | 113 | 4.0 | 9.0 | 0.00 | 0.01 | 0.00 | 56 | 1013.6 |
| 20260507152055 | 60 | 259 | 0.0 | 4.0 | 0.00 | 0.01 | 0.00 | 53 | 1013.5 |
| 20260507151122 | 60 | 139 | 0.0 | 3.0 | 0.00 | 0.01 | 0.00 | 57 | 1013.5 |
| 20260507150533 | 60 | 71 | 0.0 | 3.0 | 0.00 | 0.01 | 0.00 | 54 | 1013.6 |
| 20260507150042 | 60 | 117 | 1.0 | 3.0 | 0.00 | 0.01 | 0.00 | 58 | 1013.6 |
| 20260507145538 | 60 | 148 | 0.0 | 3.0 | 0.00 | 0.01 | 0.00 | 56 | 1013.7 |
| 20260507145026 | 60 | 158 | 0.0 | 3.0 | 0.00 | 0.01 | 0.00 | 57 | 1013.7 |
| 20260507144523 | 60 | 158 | 0.0 | 5.0 | 0.00 | 0.01 | 0.00 | 54 | 1013.7 |
| 20260507144031 | 59 | 111 | 1.0 | 7.0 | 0.00 | 0.01 | 0.00 | 58 | 1013.8 |
| 20260507143528 | 59 | 103 | 0.0 | 6.0 | 0.00 | 0.01 | 0.00 | 58 | 1013.8 |
| 20260507143036 | 59 | 105 | 1.0 | 6.0 | 0.00 | 0.01 | 0.00 | 61 | 1013.7 |
| 20260507142533 | 59 | 131 | 0.0 | 7.0 | 0.00 | 0.01 | 0.00 | 57 | 1013.7 |
| 20260507142041 | 59 | 343 | 1.0 | 8.0 | 0.00 | 0.01 | 0.00 | 61 | 1013.7 |